Location: Mentone
(34.5413°N, 85.5351°W)
Time: 08:07:58
(UTC-05:00)

Vanguard 3 - All Passes

Search period start: 30 July 2014 00:00
Search period end: 09 August 2014 00:00
Orbit: 508 x 3279 km, 33.3° (Epoch: 29 July)

Date Brightness Start Highest point End Pass type
(mag) Time Alt. Az. Time Alt. Az. Time Alt. Az.
30 Jul - 01:03:40 10° SSW 01:06:27 20° SSE 01:09:42 10° E night (unlit)
30 Jul - 03:13:14 10° WSW 03:17:31 71° S 03:24:25 10° E visible
30 Jul - 05:23:56 10° W 05:29:48 76° S 05:40:34 10° ESE visible
30 Jul - 07:35:11 10° W 07:43:10 47° SSW 07:56:53 10° SE daylight
30 Jul - 09:49:10 10° WSW 09:57:44 22° SSW 10:09:17 10° S daylight
31 Jul - 02:02:26 10° SW 02:06:06 48° SSE 02:11:09 10° E visible
31 Jul - 04:12:58 10° W 04:17:47 81° S 04:26:08 10° E visible
31 Jul - 06:23:49 10° W 06:30:28 58° SSW 06:42:27 10° ESE daylight
31 Jul - 08:36:06 10° W 08:44:20 30° SSW 08:56:52 10° SSE daylight
01 Aug - 00:51:50 10° SSW 00:54:54 25° SSE 00:58:22 10° E night (unlit)
01 Aug - 03:02:01 10° WSW 03:06:05 76° S 03:12:23 10° E visible
01 Aug - 05:12:44 10° W 05:18:12 69° S 05:28:00 10° ESE visible
01 Aug - 07:24:05 10° W 07:31:20 39° SSW 07:43:24 10° SE daylight
01 Aug - 09:39:12 10° WSW 09:45:44 16° SSW 09:54:00 10° S daylight
01 Aug - 23:42:01 10° S 23:43:40 12° SSE 23:45:18 10° SE night (unlit)
02 Aug - 01:51:03 10° WSW 01:54:40 55° SSE 01:59:24 10° E visible
02 Aug - 04:01:47 10° W 04:06:19 78° S 04:13:54 10° E visible
02 Aug - 06:12:40 10° W 06:18:46 48° SSW 06:29:27 10° SE daylight
02 Aug - 08:25:26 10° WSW 08:32:28 23° SSW 08:42:34 10° SSE daylight
03 Aug - 00:40:06 10° SW 00:43:26 32° SSE 00:46:59 10° E night (unlit)
03 Aug - 02:50:48 10° W 02:54:42 78° S 03:00:26 10° E visible
03 Aug - 05:01:35 10° W 05:06:39 60° SSW 05:15:27 10° ESE visible
03 Aug - 07:13:10 10° W 07:19:36 30° SSW 07:29:47 10° SSE daylight
03 Aug - 09:31:24 10° SW 09:33:52 11° SSW 09:36:33 10° SSW daylight
03 Aug - 23:29:21 10° SSW 23:32:09 18° SSE 23:34:44 10° ESE night (unlit)
04 Aug - 01:39:41 10° WSW 01:43:17 64° S 01:47:43 10° E visible
04 Aug - 03:50:36 10° W 03:54:52 71° S 04:01:44 10° ESE visible
04 Aug - 06:01:37 10° W 06:07:09 39° SSW 06:16:24 10° SE daylight
04 Aug - 08:15:20 10° WSW 08:20:42 17° SSW 08:27:46 10° S daylight
04 Aug - 22:19:58 10° SSE 22:20:38 10° SSE 22:21:16 10° SSE night (unlit)
05 Aug - 00:28:25 10° SW 00:32:01 41° SSE 00:35:36 10° E night (unlit)
05 Aug - 02:39:34 10° W 02:43:20 78° S 02:48:34 10° E visible
05 Aug - 04:50:27 10° W 04:55:08 49° SSW 05:02:54 10° ESE visible
05 Aug - 07:02:30 10° WSW 07:07:57 23° SSW 07:15:56 10° SSE daylight
05 Aug - 23:17:04 10° SW 23:20:42 25° SSE 23:23:48 10° ESE night (unlit)
06 Aug - 01:28:18 10° WSW 01:31:56 70° S 01:36:06 10° E visible
06 Aug - 03:39:25 10° W 03:43:27 62° S 03:49:36 10° ESE visible
06 Aug - 05:50:42 10° W 05:55:36 29° SSW 06:03:16 10° SE daylight
06 Aug - 08:07:08 10° SW 08:09:02 11° SSW 08:11:06 10° SSW daylight
06 Aug - 22:05:54 10° SSW 22:09:10 16° SSE 22:11:51 10° ESE visible
07 Aug - 00:16:45 10° WSW 00:20:38 51° SSE 00:24:14 10° E night (unlit)
07 Aug - 02:28:18 10° W 02:31:58 74° S 02:36:47 10° E visible
07 Aug - 04:39:23 10° W 04:43:40 38° SSW 04:50:20 10° SE visible
07 Aug - 06:52:20 10° WSW 06:56:22 16° SSW 07:01:38 10° S daylight
07 Aug - 20:55:47 10° S 20:57:20 11° SSE 20:58:43 10° SE visible
07 Aug - 23:04:55 10° SW 23:09:18 34° SSE 23:12:43 10° E night (unlit)
08 Aug - 01:16:54 10° W 01:20:37 75° S 01:24:33 10° E night (unlit)
08 Aug - 03:28:14 10° W 03:32:02 51° SSW 03:37:31 10° ESE visible
08 Aug - 05:40:00 10° WSW 05:44:07 21° SSW 05:49:56 10° SSE daylight
08 Aug - 21:52:58 10° SSW 21:57:44 24° SSE 22:01:14 10° ESE visible
